IRIDIUM 58 [+]

Last updated on Wed May 30 2018 00:19:59 GMT+0000 (Coordinated Universal Time)

1 25274U 98019C 18149.47268899 -.00000037 00000-0 -18748-4 0 9997 2 25274 86.4205 142.8145 0002242 75.0141 285.1305 14.38600893 55613
UTC large
Height (km)
Speed (km/s)
/
Latitude / Longitude
Inclination (degrees)
Orbital Period (minutes)
Azimuth
Elevation
Range (km)
Doppler Factor

Next 0 passes for location: London (51.5072 / 0.1276)

Sorry there are no passes over London.